Regional Weather Roundup
Issued by NWS

Home | Current Version | Previous Version | Graphics & Text | Print | Product List | Glossary On
Versions: 1 2 3 4 5 6 7 8 9 10 11 12 13 14 15 16 17 18 19 20 21 22 23 24 25 26 27 28 29 30 31 32 33 34 35 36 37 38 39 40 41 42 43 44 45 46 47 48 49 50
000
ASUS43 KDMX 290901
RWRIA

WEATHER ROUNDUP FOR IOWA
NATIONAL WEATHER SERVICE DES MOINES IA
400 AM CDT THU JUN 29 2017

NOTE: "FAIR" INDICATES FEW OR NO CLOUDS BELOW 12,000 FEET WITH NO
SIGNIFICANT WEATHER AND/OR OBSTRUCTIONS TO VISIBILITY.

* - THESE STATIONS ARE NOT NWS STATIONS...THUS NOT UNDER NWS
QUALITY CONTROL.  THEY ALSO DO NOT REPORT WEATHER SUCH
AS PRECIPITATION OR FOG.

IAZ001>003-012>014-020>022-031>034-043>046-291000-
   NORTHWEST IOWA

CITY           SKY/WX    TMP DP  RH WIND       PRES   REMARKS
CARROLL *      CLEAR     66  66 100 W5        29.75S
DENISON *      CLOUDY    66  64  94 CALM      29.76S
LE MARS *      CLEAR     61  59  94 SW6       29.76R
ORANGE CITY *  CLEAR     64  61  88 E5        29.74S
SHELDON *      PTCLDY    59  57  94 NE3       29.72F
SIOUX CITY     CLEAR     65  62  90 SE5       29.75R
SPENCER        CLEAR     56  56 100 NW3       29.73F FOG
STORM LAKE *   CLEAR     64  61  88 E6        29.76R
$$

IAZ055>058-069>071-079>083-090>094-291000-
   SOUTHWEST IOWA

CITY           SKY/WX    TMP DP  RH WIND       PRES   REMARKS
ATLANTIC *     MOCLDY    66  64  94 CALM      29.76R
AUDUBON *      PTCLDY    66  64  94 CALM      29.77R
CLARINDA *       N/A     72  68  88 S13       29.79R
COUNCIL BLFS * MOCLDY    70  70 100 SE12      29.75R
CRESTON *      CLOUDY    70  68  94 SW10      29.79R
HARLAN  *      CLOUDY    64  64 100 CALM      29.78R
LAMONI         CLOUDY    69  65  86 SW17G23   29.79R
RED OAK *      MOCLDY    72  68  88 S8        29.77R
SHENANDOAH *   CLOUDY    72  68  88 S15G21    29.77R
$$

IAZ047>049-059>061-072>074-084-291000-
   CENTRAL IOWA

CITY           SKY/WX    TMP DP  RH WIND       PRES   REMARKS
AMES           CLOUDY    66  66 100 SW7       29.72S
ANKENY *       CLOUDY    68  66  94 S6        29.74S
BOONE *        CLOUDY    66  66 100 VRB6G14   29.73S
CHARITON *     CLOUDY    66  64  94 S8        29.77R
DES MOINES     CLOUDY    68  66  93 S7        29.74R
GRINNELL*      MOCLDY    65  62  89 SW12      29.76S
KNOXVILLE *    CLOUDY    66  63  88 S9        29.74S
MARSHALLTOWN   CLOUDY    66  65  96 SW6       29.73R
NEWTON *       CLOUDY    66  63  88 S8        29.75R
PELLA *        CLOUDY    66  63  89 S8        29.77R
PERRY *          N/A     67  66  97 CALM      29.74R
$$

IAZ004>006-015-016-023>025-035-036-291000-
   NORTH CENTRAL IOWA

CITY           SKY/WX    TMP DP  RH WIND       PRES   REMARKS
ALGONA *       CLEAR     63  63 100 CALM      29.73S FOG
ESTHERVILLE    CLEAR     59  59 100 NW7       29.72S
FORT DODGE *   CLOUDY    64  61  88 CALM      29.75R
MASON CITY     CLEAR     62  61  96 W5        29.72F
FOREST CITY *    N/A     59  52  77 CALM      29.72F
WEBSTER CITY * CLOUDY    64  63  94 SW6       29.71S FOG
IOWA FALLS *     N/A     65  64  96 SW7       29.74S
$$

IAZ007>011-017>019-026>030-037>042-050>054-066-291000-
   NORTHEAST IOWA

CITY           SKY/WX    TMP DP  RH WIND       PRES   REMARKS
CEDAR RAPIDS   MOCLDY    67  64  90 SW13      29.72S
CHARLES CITY * CLEAR     63  63 100 W7        29.71S FOG
CLINTON *      MOCLDY    72  62  71 W17G30    29.73R
DECORAH *      CLEAR     64  64 100 VRB6      29.67F
DUBUQUE        CLOUDY    68  63  84 SW13      29.72R
MONTICELLO *   MOCLDY    68  63  83 SW14      29.72R
OELWEIN *      CLEAR     64  64 100 SW7       29.72S
WATERLOO       CLEAR     67  64  90 SW13      29.71S
$$

IAZ064-065-067-068-078-291000-
   EAST CENTRAL IOWA

CITY           SKY/WX    TMP DP  RH WIND       PRES   REMARKS
IOWA CITY      MOCLDY    71  61  70 SW13      29.76S
MT. PLEASANT * CLOUDY    68  58  71 SW20G26   29.79R
MUSCATINE *    CLOUDY    72  61  68 SW21G30   29.75F
QUAD CITIES    CLOUDY    71  60  68 SW10      29.73S
$$

IAZ062-063-075>077-085>089-095>099-291000-
   SOUTHEAST IOWA

CITY           SKY/WX    TMP DP  RH WIND       PRES   REMARKS
BURLINGTON     CLOUDY    68  63  84 SW14G22   29.76R
FAIRFIELD *    MOCLDY    68  61  77 SW20G26   29.78R
FORT MADISON * CLOUDY    68  63  83 SW20G25   29.80F
KEOKUK *       CLOUDY    66  63  88 W22G30    29.79R
OSKALOOSA *      N/A     66  62  87 S14       29.77S
OTTUMWA        MOCLDY    68  63  84 S20G26    29.77R
WASHINGTON *   CLOUDY    70  61  73 SW20G29   29.78R
$$

ABBREVIATIONS USED IN REMARKS
   TC - TEMPERATURES IN CELSIUS
  WCI - WIND CHILL INDEX
   HX - HEAT INDEX
  VSB - VISIBILITY
$$




USA.gov is the U.S. government's official web portal to all federal, state and local government web resources and services.